DECAYED

H-2A R/B, 36105 (Decayed)

Orbit data source: Space-Track

H-2A R/B, 36105 was space debris in LEO originally from a launch on Sat, 28 Nov 2009 UTC launched from the Tanegashima Space Center (TNSTA). Debris objects in space refer to the collection of defunct objects orbiting the Earth. Examples of debris include non-operational satellites, rocket bodies, and fragments generated from explosions, collisions, or faulty payload assembly.

Not visible in the next 10 days
H-2A R/B details
Identifier
36105, 2009-066B
Orbit
Decayed
Last TLE update1 month ago
Origin
Flag of JPMHI (JP / JPN)
ManufacturerMHI Tobishima
MissionDecayed spacecraft
Bus & MotorH-2A STAGE 2, Unknown motor
Mass4,000 kg wet, 4,000 kg dry
Launch date (UTC)
2009-11-28 (15 years ago)
Launch vehicleUnknown
Launch site
Tanegashima Space Center (TNSTA)
Object type
Payload
Rocket body
Debris
Shape & HBRCyl, 9.2 m
Radar Cross Section35.186 m², Large (>1 m²)

Expand to show TLE details & history

TLE from 1 month ago
0 H-2A R/B
1 36105U 09066B   24333.53816314  .11214308  26859-5  60091-3 0  9996
2 36105  97.3617 328.5331 0005691 209.7958 278.6503 16.42249630828754
Epoch: 2024-11-28T12:54Z
Definitive object data (Epoch: 2024-11-28T12:54:57.295Z)
Latitude51.13619°
Longitude-103.95151°
Altitude167.607 km
Speed7.811 km/s
True Right ascension10h 30m 49s
True Declination50° 57' 10"
Sunlit
Object was in full shadow at TLE epoch
Visualization observer readout
Observer readout values are unavailable because the object's trajectory could not be propagated. This is usually caused when the trajectory data is faulty or the object's orbit has decayed.
Visualization observer readout
Observer readout values are unavailable because the object's trajectory could not be propagated. This is usually caused when the trajectory data is faulty or the object's orbit has decayed.
Orbital elements
Apogee altitude160.347 km
Perigee altitude152.909 km
Semi-major axis6,534.765 km
Eccentricity0.0005691
Inclination97.3617°
RAAN328.5331°
Arg. of periapsis209.7958°
True anomaly278.58582°
Mean anomaly278.6503°
Eccentric anomaly278.61806°
Mean motion4.10864 °/min
BSTAR0.00060091
Orbital period87.62 mins
Loading maneuver chart data...
Loading historical data...
Loading historical data...
Loading historical data...
Loading historical data...
Loading historical data...
Loading historical data...
Loading historical data...

H-2A R/B Visibility forecast

Observer location: undefined°, undefined

This satellite is decayed
Span
Click to sort rows by Start time (UTC) header in descending order
Start Az.
Max El. time (UTC)
Max El. Az.
Max El.
End time (UTC)
End Az.
|